This is the latest recevied weather packets stored in our database for station/object p43g-13. If no packets are shown the sender has not sent any weather packets the latest 10 day(s).
| Time | Temp. | Humidity | Pressure | Rain* | Wind** | Luminosity | Snow |
|---|---|---|---|---|---|---|---|
| 1788134156 | 29.44° C | 84% | 1010 hPa | 0 mm | - | 0 W/m² | - |
| 1788133856 | 29.44° C | 84% | 1010.1 hPa | 0 mm | - | 0 W/m² | - |
| 1788133556 | 29.44° C | 83% | 1010.1 hPa | 0 mm | - | 0 W/m² | - |
| 1788133256 | 29.44° C | 83% | 1010 hPa | 0 mm | - | 0 W/m² | - |
| 1788132956 | 29.44° C | 83% | 1010 hPa | 0 mm | - | 0 W/m² | - |
| 1788132658 | 29.44° C | 83% | 1010 hPa | 0 mm | - | 0 W/m² | - |
| 1788132356 | 29.44° C | 82% | 1009.8 hPa | 0 mm | - | 0 W/m² | - |
| 1788132057 | 29.44° C | 82% | 1009.9 hPa | 0 mm | - | 0 W/m² | - |
| 1788131756 | 29.44° C | 82% | 1009.8 hPa | 0 mm | - | 0 W/m² | - |
| 1788131456 | 29.44° C | 82% | 1009.6 hPa | 0 mm | - | 0 W/m² | - |
| 1788131156 | 29.44° C | 81% | 1009.6 hPa | 0 mm | - | 0 W/m² | - |
| 1788130856 | 29.44° C | 81% | 1009.7 hPa | 0 mm | - | 0 W/m² | - |
| 1788130557 | 29.44° C | 80% | 1009.8 hPa | 0 mm | - | 2 W/m² | - |
| 1788130256 | 29.44° C | 79% | 1009.8 hPa | 0 mm | - | 5 W/m² | - |
| 1788129956 | 30° C | 79% | 1009.8 hPa | 0 mm | - | 9 W/m² | - |
| 1788129656 | 30° C | 79% | 1010 hPa | 0 mm | - | 13 W/m² | - |
| 1788129356 | 30° C | 78% | 1009.8 hPa | 0 mm | - | 17 W/m² | - |
| 1788129056 | 30° C | 78% | 1009.8 hPa | 0 mm | - | 22 W/m² | - |
| 1788128758 | 30° C | 77% | 1009.9 hPa | 0 mm | - | 28 W/m² | - |
| 1788128456 | 30° C | 77% | 1009.9 hPa | 0 mm | - | 36 W/m² | - |
| 1788128156 | 30° C | 77% | 1009.6 hPa | 0 mm | - | 41 W/m² | - |
| 1788127856 | 30° C | 77% | 1009.5 hPa | 0 mm | - | 50 W/m² | - |
| 1788127556 | 30.56° C | 77% | 1009.4 hPa | 0 mm | - | 60 W/m² | - |
| 1788127256 | 30.56° C | 78% | 1009.6 hPa | 0 mm | - | 67 W/m² | - |
| 1788126957 | 30.56° C | 78% | 1009.8 hPa | 0 mm | - | 71 W/m² | - |
* Rain latest hour (hover to see other rain measurements)
** Current wind speed in m/s (hover to see current wind gust speed)